Weather History for Omak, WA

Change the Weather History Date:

Thursday, May 29, 2014

  Actual Average Record
Temperature  
Mean Temperature 61 °F 62 °F  
Max Temperature 73 °F 76 °F 92 °F (1934)
Min Temperature 48 °F 48 °F 32 °F (1977)
Degree Days  
Heating Degree Days 4 4  
Month to date heating degree days 171 225  
Since 1 July heating degree days 6374 6264  
Cooling Degree Days 0 1  
Month to date cooling degree days 12 19  
Year to date cooling degree days 12 20  
Growing Degree Days 10 (Base 50)    
Moisture  
Dew Point 40 °F    
Average Humidity 54    
Maximum Humidity 80    
Minimum Humidity 28    
Precipitation  
Precipitation T in 0.05 in 0.57 in (1948)
Month to date precipitation 0.48 1.21  
Year to date precipitation 4.64 6.42  
Sea Level Pressure  
Sea Level Pressure 30.07 in    
Wind  
Wind Speed 10 mph (SSE)    
Max Wind Speed 22 mph    
Max Gust Speed 29 mph    
Visibility 10 miles    
Events      
T = Trace of Precipitation, MM = Missing Value Source: NWS Daily Summary

Daily Weather History Graph

Daily Weather History Graph

Search for Another Location

Airport:

Trip Planner

Search our weather history database for the weather conditions in past years. The results will help you decide how hot, cold, wet, or windy it might be!

Date:

Astronomy

May. 29, 2014 Rise Set
Actual Time 5:02 AM PDT 8:48 PM PDT
Civil Twilight 4:22 AM PDT 9:28 PM PDT
Nautical Twilight 3:28 AM PDT 10:23 PM PDT
Astronomical Twilight 2:09 AM PDT 11:44 PM PDT
Moon 6:05 AM PDT (5/29) 9:38 PM PDT (5/29)
Length of Visible Light 17h 05m
Length of Day
15h 45m
New Moon, 1% of the Moon is Illuminated
May 29
New Moon
Jun 5
First Quarter
Jun 12
Full
Jun 19
Last Quarter
Jun 27
New

Hourly Weather History & Observations

Time (PDT) Temp. Dew Point Humidity Pressure Visibility Wind Dir Wind Speed Gust Speed Precip Events Conditions
1:53 AM 50.0 °F 44.1 °F 80% 30.04 in 10.0 mi SSE 6.9 mph - 0.00 in   Overcast
2:53 AM 51.1 °F 43.0 °F 74% 30.04 in 10.0 mi SE 10.4 mph - N/A   Overcast
3:53 AM 51.1 °F 42.1 °F 71% 30.06 in 10.0 mi SE 8.1 mph - N/A   Overcast
4:53 AM 50.0 °F 43.0 °F 77% 30.06 in 10.0 mi South 6.9 mph - N/A   Overcast
5:53 AM 50.0 °F 44.1 °F 80% 30.08 in 10.0 mi South 10.4 mph - 0.00 in   Overcast
6:53 AM 51.1 °F 43.0 °F 74% 30.09 in 10.0 mi SSE 6.9 mph - N/A   Overcast
7:53 AM 54.0 °F 44.1 °F 69% 30.09 in 10.0 mi South 5.8 mph - N/A   Mostly Cloudy
8:53 AM 57.9 °F 45.0 °F 62% 30.10 in 10.0 mi South 10.4 mph - N/A   Mostly Cloudy
9:53 AM 62.1 °F 43.0 °F 50% 30.10 in 10.0 mi South 15.0 mph 20.7 mph N/A   Mostly Cloudy
10:53 AM 63.0 °F 41.0 °F 45% 30.09 in 10.0 mi SSE 15.0 mph 25.3 mph N/A   Overcast
11:53 AM 66.0 °F 41.0 °F 40% 30.09 in 10.0 mi SE 16.1 mph 26.5 mph N/A   Partly Cloudy
12:53 PM 69.1 °F 39.9 °F 35% 30.08 in 10.0 mi SSE 17.3 mph 23.0 mph N/A   Scattered Clouds
3:53 PM 69.1 °F 36.0 °F 30% 30.06 in 10.0 mi SSW 9.2 mph - N/A   Mostly Cloudy
4:53 PM 70.0 °F 35.1 °F 28% 30.05 in 10.0 mi SSE 11.5 mph - N/A   Scattered Clouds
5:53 PM 70.0 °F 36.0 °F 29% 30.04 in 10.0 mi SSE 12.7 mph - N/A   Overcast
6:53 PM 69.1 °F 35.1 °F 29% 30.03 in 10.0 mi SSE 13.8 mph - N/A   Overcast
7:53 PM 66.9 °F 35.1 °F 31% 30.04 in 10.0 mi SSE 10.4 mph - N/A   Mostly Cloudy
8:53 PM 64.0 °F 36.0 °F 35% 30.04 in 10.0 mi SSE 3.5 mph - N/A   Mostly Cloudy
9:53 PM 64.0 °F 35.1 °F 34% 30.06 in 10.0 mi South 11.5 mph - N/A   Clear
10:53 PM 57.9 °F 37.0 °F 46% 30.07 in 10.0 mi South 4.6 mph - N/A   Clear
11:53 PM 50.0 °F 39.0 °F 66% 30.09 in 10.0 mi WNW 5.8 mph - N/A   Clear